Location: Kimberly
(42.5380°N, 114.3640°W)
Time: 20:51:27
(UTC-07:00)

N. Korean satellite - Visible Passes

Search period start: 14 November 2018 00:00
Search period end: 24 November 2018 00:00
Orbit: 457 x 511 km, 97.2° (Epoch: 14 November)

Date Brightness Start Highest point End Pass type
(mag) Time Alt. Az. Time Alt. Az. Time Alt. Az.
14 Nov 7.4 06:45:57 10° NNE 06:49:21 53° E 06:52:42 10° S visible
14 Nov 9.3 18:56:10 10° SSW 18:59:04 22° W 19:01:55 10° NW visible
15 Nov 9.1 06:21:52 10° NE 06:24:46 25° E 06:27:39 10° SSE visible
15 Nov 7.9 18:31:00 10° S 18:34:29 44° W 18:37:55 10° NNW visible
16 Nov 10.0 05:58:32 10° ENE 06:00:06 13° E 06:01:40 10° ESE visible
16 Nov 6.5 18:06:20 10° SSE 18:09:58 86° ENE 18:13:33 10° N visible
17 Nov 7.0 17:42:08 10° SE 17:45:31 40° ENE 17:48:53 10° N visible
17 Nov 10.1 19:17:31 10° WSW 19:19:09 13° W 19:20:47 10° WNW visible
18 Nov 7.7 06:41:27 10° NNE 06:44:46 46° E 06:48:04 10° S visible
18 Nov 9.1 18:51:30 10° SSW 18:54:29 24° W 18:57:28 10° NW visible
19 Nov 9.3 06:17:24 10° NE 06:20:10 22° E 06:22:54 10° SSE visible
19 Nov 7.5 18:26:24 10° S 18:29:54 50° W 18:33:22 10° NNW visible
20 Nov 10.1 05:54:24 10° ENE 05:55:28 11° E 05:56:33 10° ESE visible
20 Nov 6.4 18:01:50 10° SSE 18:05:24 75° ENE 18:08:55 10° N visible
21 Nov 6.4 07:01:14 10° NNE 07:04:41 89° W 07:08:07 10° SSW visible
21 Nov 7.1 17:37:41 10° SE 17:40:57 35° ENE 17:44:11 10° N visible
21 Nov 9.9 19:12:35 10° SW 19:14:32 14° W 19:16:27 10° WNW visible
22 Nov 8.0 06:36:53 10° NNE 06:40:08 40° E 06:43:24 10° S visible
22 Nov 8.8 18:46:47 10° SSW 18:49:52 27° W 18:52:55 10° NW visible
23 Nov 9.5 06:12:56 10° NE 06:15:31 20° E 06:18:06 10° SE visible
23 Nov 7.2 18:21:47 10° S 18:25:17 57° W 18:28:46 10° NNW visible
